Vilanova de Sau





Hora UTC 16:20
Temperatura 24.0 ºC
Humedad 64.2 %
Presión 1017.4 hPa
Pluja 0.1 mm
Velocidad viento 0.3 km/h
Dirección viento SE
Radiación solar 175.0 W/m²
Fuel 102.6 %

Datos diarios 2019-09-20



Hora UTC (invierno +1h; verano +2h)
Temperatura (ºC) Humedad (%) Presión (hPa) Velocidad viento (km/h) Precipitación (mm) Fuel (%) Radiación solar (W/m²)
Hora UTC Aire Humedad Presión Vel. Dir. Vel. Max Dir. Intent. máx 5 min. Fuel Rad. Sol.
00:05 14.8 99.1 1019.1 0.0 NNE 0.0 WSW 0.0 548.8 0.0
00:10 14.8 99.0 1019.1 0.0 NNE 0.0 WSW 0.0 548.4 0.0
00:15 14.9 99.0 1019.0 0.0 NNE 0.0 SE 0.0 548.1 0.0
00:20 15.0 99.1 1019.0 0.0 NNE 0.0 SE 0.0 547.9 0.0
00:25 15.0 99.1 1019.0 0.0 NNE 0.0 SSW 0.0 547.7 0.0
00:30 15.0 99.0 1019.0 0.0 NNE 0.0 SSW 0.0 547.4 0.0
00:35 15.0 99.0 1019.0 0.0 NNE 0.0 SSE 0.0 547.1 0.0
00:40 15.0 99.0 1019.0 0.0 NNE 0.0 SSE 0.0 546.8 0.0
00:45 15.0 99.1 1019.0 0.0 NNE 0.0 SSE 0.0 546.6 0.0
00:50 15.1 99.1 1018.9 0.0 NNE 0.0 SW 0.0 546.3 0.0
00:55 15.0 99.0 1018.9 0.0 NNE 0.0 WSW 0.0 545.7 0.0
01:00 15.1 99.1 1018.9 0.0 NNE 0.0 WSW 0.0 545.4 0.0
01:05 15.1 99.1 1018.9 0.0 NNE 0.0 WSW 0.0 545.3 0.0
01:10 15.1 99.1 1018.9 0.0 NNE 0.0 WSW 0.0 545.1 0.0
01:15 15.1 99.0 1018.9 0.0 NNE 0.0 WSW 0.0 544.9 0.0
01:20 15.0 99.0 1018.9 0.0 NNE 0.0 WSW 0.0 544.5 0.0
01:25 14.9 98.9 1018.9 0.0 NNE 0.0 WSW 0.0 543.9 0.0
01:30 14.9 99.0 1018.8 0.0 NNE 0.0 WSW 0.0 543.5 0.0
01:35 14.9 99.1 1018.9 0.0 NNE 0.0 WSW 0.0 543.4 0.0
01:40 15.0 99.1 1018.9 0.0 NNE 0.0 WSW 0.0 543.3 0.0
01:45 15.1 99.2 1018.8 0.0 NNE 0.0 WSW 0.0 543.2 0.0
01:50 15.1 99.1 1018.8 0.0 NNE 0.0 WSW 0.0 543.0 0.0
01:55 15.0 99.1 1018.8 0.0 NNE 0.0 WSW 0.0 542.7 0.0
02:00 15.1 99.2 1018.8 0.0 NNE 0.0 WSW 0.0 542.6 0.0
02:05 15.1 99.1 1018.8 0.0 NNE 0.0 WSW 0.0 542.3 0.0
02:10 15.1 99.2 1018.8 0.0 NNE 0.0 WSW 0.0 542.1 0.0
02:15 15.2 99.2 1018.8 0.0 NNE 0.0 WSW 0.0 542.0 0.0
02:20 15.2 99.2 1018.7 0.0 NNE 0.0 WSW 0.0 541.9 0.0
02:25 15.2 99.2 1018.7 0.0 NNE 0.0 WSW 0.0 541.8 0.0
02:30 15.2 99.1 1018.7 0.0 NNE 0.0 WSW 0.0 541.7 0.0
02:35 15.2 99.1 1018.7 0.0 NNE 0.0 WSW 0.0 541.4 0.0
02:40 15.2 99.1 1018.7 0.0 NNE 0.0 WSW 0.0 541.3 0.0
02:45 15.2 99.1 1018.7 0.0 NNE 0.0 WSW 0.0 541.1 0.0
02:50 15.2 99.2 1018.7 0.0 NNE 0.0 WSW 0.0 541.1 0.0
02:55 15.2 99.2 1018.6 0.0 NNE 0.0 WSW 0.0 541.1 0.0
03:00 15.1 99.0 1018.6 0.0 NNE 0.0 WSW 0.0 540.8 0.0
03:05 14.9 99.0 1018.5 0.0 NNE 0.0 WSW 0.0 540.4 0.0
03:10 15.0 99.2 1018.5 0.0 NNE 0.0 WSW 0.0 540.5 0.0
03:15 15.0 99.2 1018.4 0.0 NNE 0.0 WSW 0.0 540.5 0.0
03:20 15.1 99.3 1018.4 0.0 NNE 0.0 WSW 0.0 540.6 0.0
03:25 15.1 99.3 1018.4 0.0 NNE 0.0 WSW 0.0 540.9 0.0
03:30 15.1 99.2 1018.4 0.0 NNE 0.0 WSW 0.0 541.1 0.0
03:35 15.1 99.3 1018.4 0.0 NNE 0.0 WSW 0.0 541.0 0.0
03:40 15.1 99.2 1018.4 0.0 NNE 0.0 WSW 0.0 541.0 0.0
03:45 15.1 99.3 1018.5 0.0 NNE 0.0 WSW 0.0 541.0 0.0
03:50 15.1 99.2 1018.6 0.0 NNE 0.0 WSW 0.0 541.1 0.0
03:55 15.0 99.1 1018.5 0.0 NNE 0.0 WSW 0.0 540.9 0.0
04:00 15.0 99.2 1018.5 0.0 NNE 0.0 WSW 0.0 540.9 0.0
04:05 15.0 99.3 1018.5 0.0 NNE 0.0 WSW 0.0 541.0 0.0
04:10 15.0 99.3 1018.5 0.0 NNE 0.0 WSW 0.0 541.2 0.0
04:15 15.0 99.2 1018.4 0.0 NNE 0.0 WSW 0.0 541.4 0.0
04:20 14.8 99.0 1018.4 0.0 NNE 0.0 WSW 0.0 541.3 0.0
04:25 14.7 99.2 1018.4 0.0 NNE 0.0 WSW 0.0 541.6 0.0
04:30 14.8 99.3 1018.4 0.0 NNE 0.0 WSW 0.0 542.0 0.0
04:35 14.7 99.2 1018.5 0.0 NNE 0.0 WSW 0.0 542.5 0.0
04:40 14.6 99.2 1018.5 0.0 NNE 0.0 WSW 0.0 543.0 0.0
04:45 14.5 99.2 1018.5 0.0 NNE 0.0 WSW 0.0 543.3 0.0
04:50 14.5 99.3 1018.5 0.0 NNE 0.0 WSW 0.0 543.8 0.0
04:55 14.4 99.3 1018.6 0.0 NNE 0.0 WSW 0.0 544.2 0.0
05:00 14.4 99.3 1018.6 0.0 NNE 0.0 WSW 0.0 544.6 0.0
05:05 14.3 99.2 1018.5 0.0 NNE 0.0 WSW 0.0 544.9 0.0
05:10 14.2 99.2 1018.5 0.0 NNE 0.0 WSW 0.0 545.3 0.0
05:15 14.1 99.3 1018.6 0.0 NNE 0.0 WSW 0.0 545.7 0.0
05:20 14.1 99.4 1018.6 0.0 NNE 0.0 WSW 0.0 546.2 0.1
05:25 14.1 99.4 1018.7 0.0 NNE 0.0 WSW 0.0 546.6 0.3
05:30 14.2 99.5 1018.8 0.0 NNE 0.0 WSW 0.0 546.8 1.4
05:35 14.2 99.4 1018.7 0.0 NNE 0.0 WSW 0.0 546.6 3.1
05:40 14.2 99.5 1018.7 0.0 NNE 0.0 WSW 0.0 546.6 5.0
05:45 14.3 99.5 1018.7 0.0 NNE 0.0 WSW 0.0 546.5 6.9
05:50 14.4 99.4 1018.7 0.0 NNE 0.0 WSW 0.0 546.2 8.7
05:55 14.4 99.4 1018.7 0.0 NNE 0.0 WSW 0.0 545.8 9.8
06:00 14.5 99.5 1018.7 0.0 NNE 0.0 SW 0.0 545.6 11.1
06:05 14.6 99.5 1018.8 0.0 NNE 0.0 WSW 0.1 545.4 12.7
06:10 14.6 99.5 1018.8 0.0 NNE 0.0 SW 0.0 545.2 16.5
06:15 14.6 99.4 1018.9 0.0 NNE 0.0 SW 0.0 544.9 25.8
06:20 14.6 99.3 1018.9 0.0 NNE 0.0 S 0.0 544.5 37.2
06:25 14.5 99.2 1019.0 0.0 NNE 0.0 SSW 0.0 543.9 45.6
06:30 14.5 99.3 1019.0 0.0 NNE 0.0 SSW 0.0 543.0 52.3
06:35 14.7 99.4 1019.1 0.0 NNE 0.0 ESE 0.0 542.2 54.6
06:40 14.7 99.2 1019.1 0.0 NNE 0.0 ESE 0.0 540.6 62.9
06:45 14.7 99.2 1019.1 0.0 NNE 0.0 SE 0.0 538.3 72.1
06:50 14.7 99.0 1019.1 0.0 NNE 0.0 SE 0.0 535.8 105.2
06:55 14.8 99.0 1019.1 0.0 NNE 0.0 SE 0.0 533.4 134.0
07:00 15.0 98.8 1019.2 0.0 NNE 0.0 SE 0.0 530.6 142.9
07:05 15.3 98.8 1019.3 0.0 NNE 0.0 SE 0.0 527.2 155.2
07:10 15.5 98.4 1019.3 0.0 NNE 0.0 ESE 0.0 524.0 131.4
07:15 15.4 98.3 1019.4 0.0 NNE 0.0 E 0.0 521.6 131.1
07:20 15.6 98.3 1019.4 0.0 NNE 0.0 E 0.0 519.1 163.0
07:25 15.8 98.3 1019.4 0.0 NNE 0.0 E 0.0 515.3 192.0
07:30 16.0 97.8 1019.5 0.0 NNE 0.0 E 0.0 511.6 172.9
07:35 16.0 97.9 1019.6 0.0 NNE 0.0 ENE 0.0 507.4 233.4
07:40 16.3 98.0 1019.7 0.0 NNE 0.0 NE 0.0 502.5 322.2
07:45 16.6 97.5 1019.7 0.0 NNE 0.0 N 0.0 495.4 357.0
07:50 17.1 97.2 1019.7 0.0 NNE 0.0 NE 0.0 486.9 418.1
07:55 17.3 96.6 1019.8 0.0 NNE 0.0 E 0.0 478.3 423.3
08:00 17.2 95.8 1019.9 0.0 NNE 0.0 NE 0.0 471.1 212.1
08:05 17.1 95.7 1019.9 0.0 NNE 0.0 N 0.0 466.9 205.6
08:10 17.2 96.1 1019.9 0.0 NNE 0.0 NNE 0.0 463.1 244.9
08:15 17.2 95.9 1019.9 0.0 NNE 0.0 NE 0.0 459.4 154.9
08:20 17.1 96.1 1019.9 0.0 NNE 0.0 NNE 0.0 456.9 141.2
08:25 17.0 96.5 1020.0 0.0 NNE 0.0 N 0.0 454.8 216.6
08:30 17.1 96.7 1020.0 0.0 NNE 0.0 ENE 0.0 451.3 360.8
08:35 17.3 96.5 1019.9 0.0 NNE 0.0 E 0.0 445.6 444.1
08:40 17.7 96.0 1019.9 0.0 NNE 0.0 NE 0.0 438.8 401.0
08:45 17.9 95.1 1019.9 0.0 NNE 0.0 SE 0.0 432.1 413.3
08:50 18.2 94.0 1019.9 0.0 NNE 0.0 ENE 0.0 425.2 464.7
08:55 18.5 92.5 1019.9 0.0 NNE 0.0 NE 0.0 419.0 369.7
09:00 18.8 91.1 1019.9 0.0 NNE 0.0 ENE 0.0 412.5 467.7
09:05 19.1 90.0 1020.0 0.0 NNE 0.0 E 0.0 405.3 495.6
09:10 19.0 89.7 1020.0 0.0 NNE 0.0 E 0.0 397.9 511.5
09:15 19.5 89.5 1020.0 0.0 NNE 0.0 NE 0.0 391.2 554.0
09:20 20.1 86.3 1019.9 0.0 NNE 0.0 E 0.0 383.4 571.0
09:25 20.6 83.9 1019.9 0.0 NNE 0.0 N 0.0 376.0 583.7
09:30 21.2 80.2 1019.9 0.0 NNE 0.0 SSE 0.0 368.5 578.2
09:35 21.1 77.3 1019.9 0.0 NNE 0.0 NNW 0.0 360.8 590.5
09:40 21.1 75.9 1019.9 0.0 NNE 0.0 E 0.0 353.5 546.3
09:45 21.7 75.9 1019.9 0.0 NNE 0.0 S 0.0 347.2 594.9
09:50 21.7 75.5 1019.9 0.0 NNE 0.0 NNE 0.0 340.2 636.2
09:55 21.8 74.0 1019.9 0.0 NNE 0.0 NNE 0.0 333.7 649.5
10:00 22.0 71.4 1019.8 0.0 NNE 0.0 NNE 0.0 327.0 668.8
10:05 22.3 69.0 1019.8 0.0 ENE 6.1 ENE 0.0 320.4 672.8
10:10 22.1 68.0 1019.8 0.0 NNE 0.0 ENE 0.0 314.0 673.0
10:15 22.4 67.7 1019.7 0.0 NNE 0.0 NNE 0.0 308.0 682.7
10:20 22.4 66.6 1019.7 0.0 NNE 0.0 ENE 0.0 302.1 682.3
10:25 22.6 68.5 1019.6 0.0 NNE 0.0 NE 0.0 296.7 679.2
10:30 23.0 66.4 1019.6 0.0 NNE 0.0 ENE 0.0 291.4 682.0
10:35 23.2 66.4 1019.6 0.0 NNE 0.0 N 0.0 286.2 708.0
10:40 23.1 63.1 1019.6 0.0 NNE 0.0 ENE 0.0 281.1 664.1
10:45 22.8 61.2 1019.6 0.0 NNE 0.0 E 0.0 276.0 692.1
10:50 23.0 62.0 1019.5 0.0 NNE 0.0 NE 0.0 271.0 689.8
10:55 23.2 62.4 1019.5 0.0 NNE 0.0 NE 0.0 265.9 687.9
11:00 23.3 61.6 1019.4 0.0 NNE 0.0 NE 0.0 260.8 699.4
11:05 23.2 60.6 1019.4 0.0 NNE 0.0 ENE 0.0 255.9 703.7
11:10 23.4 59.8 1019.3 0.0 NNE 0.0 NE 0.0 250.4 699.5
11:15 23.4 58.6 1019.3 0.0 NNE 0.0 ENE 0.0 245.0 703.9
11:20 23.4 59.3 1019.3 0.0 NNE 0.0 ENE 0.0 240.2 649.3
11:25 23.6 59.9 1019.2 0.0 NNE 0.0 ENE 0.0 235.4 703.7
11:30 24.0 58.3 1019.2 0.0 NNE 0.0 NE 0.0 230.4 705.6
11:35 23.8 57.5 1019.1 0.0 NNE 0.0 ENE 0.0 225.4 718.3
11:40 24.0 56.7 1019.0 0.0 NNE 0.0 NE 0.0 220.5 720.8
11:45 24.1 56.4 1019.0 0.0 NNE 0.0 ENE 0.0 215.7 722.4
11:50 24.1 55.8 1018.9 0.0 NNE 0.0 NNE 0.0 211.0 708.3
11:55 24.0 56.8 1018.9 0.0 NNE 0.0 NE 0.0 207.1 592.6
12:00 23.9 56.3 1018.9 0.0 NNE 0.0 ESE 0.0 204.0 518.6
12:05 23.8 57.2 1018.8 0.0 NNE 0.0 ENE 0.0 200.6 640.4
12:10 24.2 55.8 1018.8 0.0 NNE 0.0 NE 0.0 196.7 704.4
12:15 24.4 55.7 1018.7 0.0 NNE 0.0 NE 0.0 192.7 702.1
12:20 24.5 56.0 1018.6 0.0 NNE 0.0 ENE 0.0 189.0 663.4
12:25 24.5 56.1 1018.6 0.0 NNE 0.0 ENE 0.0 185.4 704.6
12:30 24.2 56.5 1018.6 0.0 NNE 0.0 NNE 0.0 182.3 587.0
12:35 24.2 57.9 1018.5 0.0 NNE 0.0 NNE 0.0 179.6 700.9
12:40 24.4 57.2 1018.4 0.0 NNE 0.0 NE 0.0 176.5 700.4
12:45 24.2 57.8 1018.4 0.3 NE 11.5 NE 0.0 174.3 198.2
12:50 23.6 59.7 1018.4 0.0 NNE 0.0 ENE 0.0 173.4 244.3
12:55 23.6 60.0 1018.4 0.0 NNE 0.0 NE 0.0 172.0 265.1
13:00 23.9 59.5 1018.3 0.0 NNE 0.0 ENE 0.0 170.1 553.6
13:05 24.1 58.9 1018.3 0.0 NNE 0.0 NE 0.0 168.1 366.8
13:10 23.9 58.3 1018.3 0.0 NNE 0.0 NE 0.0 165.9 561.4
13:15 24.1 57.8 1018.3 0.0 NNE 0.0 ENE 0.0 163.6 536.4
13:20 24.2 57.2 1018.3 0.0 NNE 0.0 ENE 0.0 161.4 162.8
13:25 23.8 58.9 1018.2 0.0 NNE 0.0 E 0.0 160.0 195.2
13:30 23.7 58.9 1018.2 0.0 NNE 0.0 ENE 0.0 158.6 269.1
13:35 23.7 58.8 1018.1 0.0 NNE 0.0 NE 0.0 157.2 120.0
13:40 23.4 59.2 1018.0 0.0 NNE 0.0 ENE 0.0 155.9 154.2
13:45 23.6 64.4 1017.9 0.0 NNE 0.0 NE 0.0 155.1 365.8
13:50 23.8 58.2 1017.9 1.0 ENE 8.8 NE 0.0 153.0 586.5
13:55 24.2 56.8 1017.9 0.0 NNE 0.0 ENE 0.0 150.5 516.4
14:00 24.4 56.0 1017.9 0.9 ENE 14.2 ENE 0.0 148.1 549.4
14:05 24.5 56.1 1017.9 7.2 ENE 16.9 ENE 0.0 145.7 553.6
14:10 24.5 56.0 1017.9 8.7 NE 19.6 NNE 0.0 143.4 534.0
14:15 24.4 56.6 1017.8 7.4 NE 16.9 NE 0.0 141.2 491.2
14:20 24.3 57.0 1017.9 8.3 ENE 16.9 ENE 0.0 139.2 463.3
14:25 24.4 57.6 1017.8 4.9 NE 11.5 NE 0.0 137.4 480.9
14:30 24.5 57.4 1017.7 6.2 ENE 11.5 ENE 0.0 135.5 491.5
14:35 24.6 57.3 1017.7 6.0 NE 11.5 NE 0.0 133.6 468.3
14:40 24.6 57.2 1017.5 9.6 ENE 19.6 ENE 0.0 131.7 463.4
14:45 24.6 57.3 1017.4 9.7 ENE 16.9 ENE 0.0 129.9 449.3
14:50 24.4 57.4 1017.3 8.9 ENE 16.9 NE 0.0 128.2 428.2
14:55 24.4 58.1 1017.3 6.7 ENE 14.2 NE 0.0 126.5 410.9
15:00 24.6 58.4 1017.3 5.7 ENE 11.5 ENE 0.0 124.9 404.5
15:05 24.6 58.2 1017.3 6.1 NE 14.2 NE 0.0 123.2 393.6
15:10 24.6 58.9 1017.2 3.4 ENE 8.8 E 0.0 121.5 381.4
15:15 24.6 58.8 1017.3 3.0 ENE 16.9 E 0.0 119.9 368.4
15:20 24.4 58.1 1017.3 2.8 ENE 11.5 ENE 0.0 118.2 356.1
15:25 24.3 58.5 1017.2 6.4 ENE 16.9 E 0.0 116.6 341.7
15:30 24.3 58.4 1017.2 0.6 ENE 14.2 ENE 0.0 115.0 324.2
15:35 24.2 58.3 1017.2 7.6 ENE 14.2 ENE 0.0 113.5 317.7
15:40 24.3 59.6 1017.2 2.4 ENE 11.5 ENE 0.0 112.1 296.0
15:45 24.1 59.6 1017.3 7.1 NE 14.2 NE 0.0 110.7 270.9
15:50 24.1 60.3 1017.3 2.6 ENE 16.9 NE 0.0 109.5 278.7
15:55 24.2 60.8 1017.3 0.0 NNE 0.0 ESE 0.0 108.2 257.1
16:00 24.0 60.9 1017.4 7.2 ENE 16.9 ENE 0.0 106.9 243.3
16:05 24.1 61.1 1017.4 0.0 NNE 0.0 ENE 0.0 105.8 245.8
16:10 24.1 63.0 1017.4 0.0 NNE 0.0 NE 0.0 104.7 226.4
16:15 24.3 63.4 1017.4 0.3 ESE 11.5 SE 0.0 103.7 213.7
16:20 24.0 64.2 1017.4 0.3 SE 8.8 SSE 0.0 102.6 175.0
Máxima 24.7 99.5 1020.0 9.7 ENE 19.6 ENE 0.1 548.8 722.4
Mínima 14.1 55.7 1017.2 102.6
Total 0.1